Location: Campillo
(40.8621°N, 4.2488°W)
Time: 17:25:24
(UTC+00:00)

Cosmos 2084 - Pass Details

Date: 28 September 2021
Orbit: 528 x 653 km, 62.8° (Epoch: 25 October)

Event Time Altitude Azimuth Distance (km) Brightness Sun altitude
Exits shadow 03:35:00 19° 114° (ESE) 1,297 5.6 -29.4°
Drops below altitude 10° 03:37:53 10° 68° (ENE) 1,798 6.9 -28.9°
Sets 03:40:34 0° 51° (NE) 2,711 8.0 -28.4°
